Location: Most
(50.5133°N, 13.6207°E)
Time: 20:32:24
(UTC+02:00)

ISS - Pass Details

Date: 21 May 2025
Orbit: 415 x 417 km, 51.6° (Epoch: 16 June)

Event Time Altitude Azimuth Distance (km) Brightness Sun altitude
Rises 23:52:50 0° 280° (W) 2,359 0.4 -17.5°
Reaches altitude 10° 23:55:54 10° 249° (WSW) 1,490 -1.0 -17.6°
Enters shadow 23:56:23 11° 241° (WSW) 1,415 -1.2 -17.6°
